Погода в Неполоковцах

Украина / Черновицкая область     48°23′58″N   25°39′07″E
темп.,
°C
ветер,
м/с
пор.,
м/с
влажн.,
%
обл.,
%
осадки,
мм/ч
давл.,
гПа
погр.,
м
12 августа, пт
пт1200:00+15сз22800 0.0 102016
03:00+14зсз228924 0.0 102022
06:00+14зсз2486100 0.1 1020120
09:00+18зсз457454 0.1 1020348
12:00+21сз4668100 0.1 1019648
15:00+23с4568100 0.4 10181071
18:00+20ссв3886100 2.6 1018317
21:00+18с2292100 2.7 101835
13 августа, сб
сб1300:00+18ссз229378 0.1 101731
03:00+16зсз229653 0.1 101625
06:00+16сз229799 0.0 101529
09:00+17зсз3494100 0.0 1015225
12:00+20сз448598 0.0 1014531
15:00+25с346053 0.0 10121289
18:00+25ссв3463100 1.3 10101000
21:00+19сз2287100 6.3 101015
14 августа, вс
вс1400:00+18ссз2396100 5.8 101087
03:00+17зсз3698100 6.1 1009160
06:00+17зсз3598100 0.0 1009147
09:00+19сз4592100 0.0 1009404
12:00+23сз3472100 0.0 1009866
15:00+26с3459100 0.0 10081269
18:00+26с345936 0.0 1008798
21:00+21св0174100 0.1 100711
15 августа, пн
пн1500:00+19ююв118992 2.9 100812
03:00+17ю019098 2.9 100711
06:00+17зсз0192100 0.2 100711
09:00+20зсз1182100 0.4 1007201
12:00+24сз216194 0.0 1007646
15:00+28ссз1149100 0.0 10061178
18:00+27св114815 0.0 10061163
21:00+18зюз358027 0.3 100788
16 августа, вт
вт1600:00+18юз11746 0.1 100814
03:00+17з22875 0.1 100721
06:00+17зюз22865 0.0 100716
09:00+21зюз22675 0.0 1008223
12:00+26з225058 0.1 1008629
15:00+30сз02385 0.1 10071566
18:00+26ссз345185 0.1 1007204
21:00+19зюз119081 4.9 100919